Regional Weather Roundup
Issued by NWS

Home | Current Version | Previous Version | Text Only | Print | Product List | Glossary On
Versions: 1 2 3 4 5 6 7 8 9 10 11 12 13 14 15 16 17 18 19 20 21 22 23 24 25 26 27 28 29 30 31 32 33 34 35 36 37 38 39 40 41 42 43 44 45 46 47 48 49 50
000
ASUS43 KOAX 271310
RWRNE

WEATHER ROUNDUP FOR NEBRASKA
NATIONAL WEATHER SERVICE OMAHA NE
800 AM CDT TUE SEP 27 2016

NOTES: SATELLITE DATA IS BEING USED TO AUGMENT CLOUD COVER ABOVE
       12000 FEET.
       "FAIR" INDICATES FEW OR NO CLOUDS BELOW 12,000 FEET WITH NO
       SIGNIFICANT WEATHER AND/OR OBSTRUCTIONS TO VISIBILITY.

  * THESE STATIONS DO NOT REPORT WEATHER SUCH AS RAIN...SNOW OR FOG.

NEZ001>004-019>022-054>056-271400-
NEBRASKA PANHANDLE

CITY           SKY/WX    TMP DP  RH WIND       PRES   REMARKS
SCOTTSBLUFF    CLOUDY    39  37  92 NW5       30.18S
ALLIANCE       CLOUDY    35  34  96 SW3       30.16F
CHADRON        CLEAR     40  38  93 SW5       30.13F
KIMBALL        CLOUDY    41  37  87 W8        30.22S
SIDNEY         CLOUDY    40  37  89 NW7       30.19F
$$

NEZ057>060-069>072-079>082-271400-
SOUTHWEST NEBRASKA

CITY           SKY/WX    TMP DP  RH WIND       PRES   REMARKS
NORTH PLATTE   CLOUDY    37  35  92 NW3       30.15S
IMPERIAL       CLEAR     47  39  74 NW5       30.17S
LEXINGTON      CLEAR     43  40  89 W6        30.12S
MCCOOK         CLEAR     44  41  89 W7        30.13S
OGALLALA       CLEAR     40  38  95 W3        30.17S
$$

NEZ005>010-023>029-035>040-094-271400-
NORTH CENTRAL NEBRASKA

CITY           SKY/WX    TMP DP  RH WIND       PRES   REMARKS
VALENTINE      CLEAR     40  36  86 W8        30.10F WCI  34
AINSWORTH      CLEAR     44  40  88 W6        30.10S
BROKEN BOW     CLEAR     41  39  93 CALM      30.10F
O`NEILL        CLEAR     45  40  84 W3        30.08S
ORD            CLEAR     40  37  89 CALM      30.09S
THEDFORD       CLEAR     42  40  91 W3        30.14S
$$

NEZ041-046>049-061>064-073>077-083>087-271400-
SOUTH CENTRAL NEBRASKA

CITY           SKY/WX    TMP DP  RH WIND       PRES   REMARKS
GRAND ISLAND   CLEAR     47  42  83 NW6       30.08S
AURORA         CLEAR     48  45  89 NW6       30.07S
HASTINGS       CLEAR     49  42  77 NW5       30.09R
HEBRON         CLEAR     45  43  93 CALM      30.07R
HOLDREGE       CLEAR     46  41  84 NW7       30.10S
KEARNEY *      CLEAR     46  39  76 NW7       30.09S
YORK           CLEAR     46  45  93 CALM      30.07R
$$

NEZ011>018-030>034-042>045-271400-
NORTHEAST NEBRASKA

CITY           SKY/WX    TMP DP  RH WIND       PRES   REMARKS
NORFOLK        CLEAR     44  40  85 CALM      30.05S
ALBION         CLEAR     42  40  93 NW6       30.07S
BLAIR          CLEAR     49  44  84 CALM      30.04R
FREMONT        CLEAR     46  45  97 CALM      30.05R
TEKAMAH        CLEAR     46  43  89 CALM      30.03S
WAYNE          CLEAR     42  40  94 S3        30.05R
$$

NEZ050>053-065>068-078-088>093-271400-
SOUTHEAST NEBRASKA

CITY           SKY/WX    TMP DP  RH WIND       PRES   REMARKS
LINCOLN        CLEAR     49  45  86 CALM      30.06S
OMAHA EPPLEY   CLEAR     52  46  80 CALM      30.04S
BEATRICE       CLEAR     47  46  96 SW5       30.05S
FALLS CITY     CLEAR     50  47  89 CALM      30.03S
NEBRASKA CITY  CLEAR     52  41  67 N3        30.04R
PLATTSMOUTH    CLEAR     50  44  79 NW3       30.04S
$$

NEZ044-045-051>053-067-271400-
OMAHA AREA

CITY           SKY/WX    TMP DP  RH WIND       PRES   REMARKS
OMAHA EPPLEY   CLEAR     52  46  80 CALM      30.04S
BLAIR          CLEAR     49  44  84 CALM      30.04R
FREMONT        CLEAR     46  45  97 CALM      30.05R
MILLARD        CLEAR     48  47  94 CALM      30.04S
OFFUTT AFB     CLEAR     50  48  93 W3        30.03S
PLATTSMOUTH    CLEAR     50  44  79 NW3       30.04S
WAHOO          FAIR      46  45  93 N3        30.04S
$$



USA.gov is the U.S. government's official web portal to all federal, state and local government web resources and services.